Regional Weather Roundup
Issued by NWS

Home | Current Version | Previous Version | Graphics & Text | Print | Product List | Glossary On
Versions: 1 2 3 4 5 6 7 8 9 10 11 12 13 14 15 16 17 18 19 20 21 22 23 24 25 26 27 28 29 30 31 32 33 34 35 36 37 38 39 40 41 42 43 44 45 46 47 48 49 50
000
ASUS43 KTOP 040559
RWRKS

WEATHER ROUNDUP FOR KANSAS
NATIONAL WEATHER SERVICE GOODLAND KS
100 AM CDT MON MAY 04 2015

NOTE:  "FAIR" INDICATES FEW OR NO CLOUDS BELOW 12,000 FEET WITH NO
SIGNIFICANT WEATHER AND/OR OBSTRUCTIONS TO VISIBILITY.

KSZ001>006-013>018-027>032-041>047-040700-
NORTHWEST KANSAS

CITY           SKY/WX    TMP DP  RH WIND       PRES   REMARKS
GOODLAND       CLOUDY    62  48  60 NE10      30.02R
6HR MIN TEMP:  61; 6HR MAX TEMP:  80;

HAYS           CLOUDY    72  46  40 NW20G28   29.88F THUNDER
HILL CITY      CLOUDY    65  55  70 SW5       29.95S
6HR MIN TEMP:  62; 6HR MAX TEMP:  82; 6HR PCP:  0.30;

RUSSELL        CLOUDY    73  47  39 W13       29.87R
6HR MIN TEMP:  68; 6HR MAX TEMP:  84;

$$

KSZ061>065-074>080-084>089-040700-
SOUTHWEST KANSAS

CITY           SKY/WX    TMP DP  RH WIND       PRES   REMARKS
DODGE CITY     CLOUDY    67  49  52 W9        29.95S
6HR MIN TEMP:  65; 6HR MAX TEMP:  83; 6HR PCP:  0.01;

ELKHART          N/A     59  52  78 N3          N/A
GARDEN CITY    CLOUDY    60  54  80 SE7       29.96F
6HR MIN TEMP:  59; 6HR MAX TEMP:  80; 6HR PCP:  0.04;

GREAT BEND     CLOUDY    70  48  46 SW13G23   29.94R
LIBERAL        CLOUDY    63  52  67 E8        29.99R
$$

KSZ066>073-081>083-090>101-040700-
SOUTHEAST KANSAS

CITY           SKY/WX    TMP DP  RH WIND       PRES   REMARKS
CHANUTE        CLEAR     59  56  89 S7        29.97R
6HR MIN TEMP:  59; 6HR MAX TEMP:  78;

COFFEYVILLE    MOCLDY    62  57  83 SE7       29.97R
6HR MIN TEMP:  62; 6HR MAX TEMP:  76;

HUTCHINSON     CLOUDY    69  56  62 S9        29.92R
6HR MIN TEMP:  69; 6HR MAX TEMP:  82;

MEDICINE LODGE   N/A     69  54  58 S12       29.90F
NEWTON         CLOUDY    66  50  55 S15       29.95R
PARSONS        PTCLDY    63  57  81 S5        29.98R
6HR MIN TEMP:  63; 6HR MAX TEMP:  77;

WICHITA INTL   CLOUDY    66  54  65 S16       29.93R
6HR MIN TEMP:  66; 6HR MAX TEMP:  78;

WICHITA JABRA  CLOUDY    67  52  58 S12       29.94R
6HR MIN TEMP:  67; 6HR MAX TEMP:  77;

WINFIELD       CLOUDY    64  53  67 S12       29.97R
6HR MIN TEMP:  64; 6HR MAX TEMP:  76;

$$

KSZ007>012-019>026-033>040-048>060-102>105-040700-
NORTHEAST KANSAS

CITY           SKY/WX    TMP DP  RH WIND       PRES   REMARKS
CONCORDIA      CLOUDY    71  58  63 SW16      29.84R
6HR MIN TEMP:  70; 6HR MAX TEMP:  83;

EMPORIA        MOCLDY    66  55  67 S18       29.91R
6HR MIN TEMP:  65; 6HR MAX TEMP:  79;

LAWRENCE       MOCLDY    69  56  62 S16       29.89F
6HR MIN TEMP:  69; 6HR MAX TEMP:  80;

MANHATTAN      MOCLDY    70  57  63 SW16G25   29.86R
6HR MIN TEMP:  70; 6HR MAX TEMP:  80;

OLATHE IND     MOCLDY    68  56  65 S14       29.92F
6HR MIN TEMP:  68; 6HR MAX TEMP:  78;

OLATHE EXE     MOCLDY    68  57  68 S12       29.92S
6HR MIN TEMP:  68; 6HR MAX TEMP:  78;

SALINA         CLOUDY    70  58  65 S17       29.90R
6HR MIN TEMP:  70; 6HR MAX TEMP:  83;

TOPEKA BILLARD MOCLDY    71  56  58 S15G22    29.89R
6HR MIN TEMP:  71; 6HR MAX TEMP:  83;

TOPEKA FORBES  PTCLDY    70  56  61 S17G25    29.89R
6HR MIN TEMP:  70; 6HR MAX TEMP:  82;

$$



USA.gov is the U.S. government's official web portal to all federal, state and local government web resources and services.